Location: Izdebno
(52.6670°N, 16.2170°E)
Time: 09:34:37
(UTC+02:00)

A-11 Canister half - Pass Details

Date: 24 February 2024
Orbit: 1513 x 1686 km, 47.2° (Epoch: 24 April)

Event Time Altitude Azimuth Distance (km) Brightness Sun altitude
Exits shadow 06:00:10 10° 269° (W) 3,918 10.4 -8.9°
Reaches altitude 10° 06:00:11 10° 269° (W) 3,917 10.4 -8.9°
Maximum altitude 06:09:57 61° 193° (SSW) 1,813 9.4 -7.4°
Drops below altitude 10° 06:19:21 10° 117° (ESE) 3,782 12.5 -6.0°
Sets 06:22:26 0° 114° (ESE) 4,743 13.5 -5.6°
